Stations météo

réclame
Mon MeteoGroup
Pershore, Grande-Bretagne (3529): Température de l'air & dewpoint: 11.07.2018 12:00:00 - 17.07.2018 12:00:00 (BST)Pershore, Grande-Bretagne (3529): Température de l'air -20cm & Température de l'air -100cm: 11.07.2018 12:00:00 - 17.07.2018 12:00:00 (BST)Pershore, Grande-Bretagne (3529): Vitesse du vent: 11.07.2018 12:00:00 - 17.07.2018 12:00:00 (BST)Pershore, Grande-Bretagne (3529): Direction du vent: 11.07.2018 12:00:00 - 17.07.2018 12:00:00 (BST)Pershore, Grande-Bretagne (3529): reduced air pressure: 11.07.2018 12:00:00 - 17.07.2018 12:00:00 (BST)Pershore, Grande-Bretagne (3529): visibility: 11.07.2018 12:00:00 - 17.07.2018 12:00:00 (BST)Pershore, Grande-Bretagne (3529): Quantités de précipitations: 11.07.2018 12:00:00 - 17.07.2018 12:00:00 (BST)
Date & Time tt [°C] td [°C] tt -20cm [°C] tt -100cm [°C] ff [km/h] ff [knt] dd ppp [hPa] vv [km] rr [mm]
17.07.2018 12:00:00 20,0 10,3 - - 9 5 WSW 1015,9 23 0,0
17.07.2018 11:00:00 20,2 11,3 - - 8 4 S 1015,9 22 0,0
17.07.2018 10:00:00 18,4 12,0 19,7 18,4 11 6 SW 1016,0 16 0,0
17.07.2018 09:00:00 17,3 12,3 - - 9 5 SW 1016,0 30 0,0
17.07.2018 08:00:00 15,2 12,0 - - 8 4 S 1015,9 24 0,0
17.07.2018 07:00:00 13,1 10,7 - - 8 4 S 1015,6 30 0,0
17.07.2018 06:00:00 12,3 10,7 - - 5 3 SSW 1015,1 30 0,0
17.07.2018 05:00:00 11,6 9,8 - - 5 3 SW 1015,1 25 0,0
17.07.2018 04:00:00 12,2 10,4 - - 8 4 WSW 1014,9 40 0,0
17.07.2018 03:00:00 12,2 9,8 - - 2 1 SSW 1015,0 50 0,0
17.07.2018 02:00:00 13,7 10,6 - - 9 5 W 1014,9 45 0,0
17.07.2018 01:00:00 13,8 10,5 - - 9 5 W 1014,9 45 0,0
17.07.2018 00:00:00 14,8 11,4 - - 9 5 W 1014,9 50 0,0
16.07.2018 23:00:00 16,3 11,7 - - 13 7 W 1014,5 50 0,0
16.07.2018 22:00:00 17,9 12,7 - - 11 6 W 1013,9 45 0,0
16.07.2018 21:00:00 18,7 15,7 - - 11 6 SW 1013,1 30 0,0
16.07.2018 20:00:00 18,8 15,6 - - 9 5 SSW 1012,9 45 0,0
16.07.2018 19:00:00 19,0 13,6 - - 16 9 WSW 1012,7 11 0,0
16.07.2018 18:00:00 22,5 13,2 - - 16 9 W 1012,2 50 0,0
16.07.2018 17:00:00 25,8 10,9 - - 21 11 SW 1011,9 40 0,0
16.07.2018 16:00:00 26,3 11,5 - - 22 12 SSW 1012,2 21 0,0
16.07.2018 15:00:00 25,3 12,4 - - 16 9 SSW 1012,8 29 0,0
16.07.2018 14:00:00 25,2 13,0 - - 16 9 SSW 1013,3 27 0,0
16.07.2018 13:00:00 24,2 12,0 - - 8 4 SW 1013,6 35 0,0
16.07.2018 12:00:00 23,9 10,4 - - 11 6 SSW 1014,0 26 0,0
16.07.2018 11:00:00 22,0 12,5 - - 5 3 SW 1014,1 35 0,0
16.07.2018 10:00:00 21,3 12,2 20,7 18,2 5 3 W 1014,2 30 0,0
16.07.2018 09:00:00 20,6 12,0 - - 5 3 S 1014,3 25 0,0
16.07.2018 08:00:00 18,2 13,1 - - 5 3 SW 1014,6 30 0,0
16.07.2018 07:00:00 16,5 12,7 - - 2 1 WSW 1014,5 26 0,0
16.07.2018 06:00:00 15,0 11,4 - - 0 0 N 1014,6 30 0,0
16.07.2018 05:00:00 14,0 10,6 - - 2 1 WNW 1014,6 35 0,0
16.07.2018 04:00:00 13,3 10,9 - - 2 1 SW 1015,0 40 0,0
16.07.2018 03:00:00 13,7 10,5 - - 4 2 NE 1015,1 24 0,0
16.07.2018 02:00:00 14,4 9,7 - - 4 2 NE 1015,2 35 0,0
16.07.2018 01:00:00 14,6 10,1 - - 4 2 S 1015,3 35 0,0
16.07.2018 00:00:00 16,9 10,2 - - 5 3 SW 1015,2 30 0,0
15.07.2018 23:00:00 18,8 11,0 - - 5 3 WSW 1015,3 40 0,0
15.07.2018 22:00:00 21,2 11,2 - - 9 5 W 1014,9 45 0,0
15.07.2018 21:00:00 22,9 10,4 - - 8 4 W 1014,5 35 0,0
15.07.2018 20:00:00 25,6 10,3 - - 11 6 W 1014,1 35 0,0
15.07.2018 19:00:00 26,0 11,3 - - 11 6 SW 1014,0 30 0,0
15.07.2018 18:00:00 26,2 12,1 - - 9 5 SW 1014,4 35 0,0
15.07.2018 17:00:00 26,3 10,4 - - 13 7 SSW 1014,7 35 0,0
15.07.2018 16:00:00 27,1 11,4 - - 9 5 SSW 1015,1 40 0,0
15.07.2018 15:00:00 26,2 11,7 - - 9 5 WNW 1015,5 35 0,0
15.07.2018 14:00:00 25,2 12,0 - - 11 6 W 1016,1 29 0,0
15.07.2018 13:00:00 24,4 12,0 - - 8 4 SW 1016,7 40 0,0
15.07.2018 12:00:00 24,3 13,4 - - 8 4 W 1017,0 26 0,0
15.07.2018 11:00:00 22,2 13,3 - - 8 4 SSW 1017,2 30 0,0
15.07.2018 10:00:00 20,7 13,2 20,2 18,2 8 4 SW 1017,5 26 0,0
15.07.2018 09:00:00 19,5 13,9 - - 9 5 W 1017,9 30 0,0
15.07.2018 08:00:00 17,4 14,0 - - 8 4 W 1018,1 35 0,0
15.07.2018 07:00:00 14,5 13,3 - - 2 1 WSW 1017,9 29 0,0
15.07.2018 06:00:00 12,0 11,6 - - 4 2 WSW 1017,9 12 0,0
15.07.2018 05:00:00 11,3 10,4 - - 2 1 S 1018,1 30 0,0
15.07.2018 04:00:00 11,9 10,7 - - 4 2 SW 1018,2 35 0,0
15.07.2018 03:00:00 12,5 10,9 - - 2 1 SW 1018,3 21 0,0
15.07.2018 02:00:00 13,6 11,3 - - 2 1 S 1018,3 15 0,0
15.07.2018 01:00:00 15,1 12,0 - - 4 2 WSW 1018,4 22 0,0
15.07.2018 00:00:00 17,1 12,5 - - 8 4 WSW 1018,3 16 0,0
14.07.2018 23:00:00 18,9 12,5 - - 9 5 SSW 1018,3 29 0,0
14.07.2018 22:00:00 20,6 12,5 - - 8 4 S 1018,0 40 0,0
14.07.2018 21:00:00 22,7 11,0 - - 11 6 S 1017,6 45 0,0
14.07.2018 20:00:00 24,8 9,9 - - 13 7 SSW 1017,6 50 0,0
14.07.2018 19:00:00 25,2 9,4 - - 18 10 SW 1017,8 40 0,0
14.07.2018 18:00:00 25,8 11,7 - - 16 9 SSW 1018,1 30 0,0
14.07.2018 17:00:00 26,0 12,8 - - 15 8 SSW 1018,3 40 0,0
14.07.2018 16:00:00 25,4 12,7 - - 15 8 S 1018,7 28 0,0
14.07.2018 15:00:00 25,9 14,2 - - 11 6 SSW 1019,2 29 0,0
14.07.2018 14:00:00 25,3 14,3 - - 13 7 SSW 1019,8 29 0,0
14.07.2018 13:00:00 24,0 14,7 - - 11 6 SW 1020,3 14 0,0
14.07.2018 12:00:00 22,3 14,9 - - 9 5 SSW 1020,8 15 0,0
14.07.2018 11:00:00 20,9 14,8 - - 9 5 S 1021,1 13 0,0
14.07.2018 10:00:00 19,4 15,2 20,7 18,2 5 3 SE 1021,2 6 0,0
14.07.2018 09:00:00 18,4 16,3 - - 4 2 N 1021,5 5 0,0
14.07.2018 08:00:00 16,6 16,2 - - 2 1 SE 1021,5 2,8 0,0
14.07.2018 07:00:00 15,7 15,5 - - 2 1 N 1021,3 1,8 0,0
14.07.2018 06:00:00 15,2 15,0 - - 2 1 NNW 1021,2 0,6 0,0
14.07.2018 05:00:00 14,5 14,3 - - 4 2 NW 1021,3 3,4 0,0
14.07.2018 04:00:00 12,8 12,1 - - 2 1 N 1021,6 7 0,0
14.07.2018 03:00:00 13,7 13,0 - - 2 1 W 1021,6 8 0,0
14.07.2018 02:00:00 14,3 13,3 - - 2 1 W 1021,6 8 0,0
14.07.2018 01:00:00 15,3 14,1 - - 4 2 SE 1021,7 8 0,0
14.07.2018 00:00:00 17,0 15,6 - - 2 1 E 1021,7 13 0,0
13.07.2018 23:00:00 18,0 15,8 - - 2 1 NNW 1021,6 13 0,0
13.07.2018 22:00:00 18,5 15,9 - - 4 2 ENE 1021,4 18 0,0
13.07.2018 21:00:00 18,6 15,9 - - 4 2 SW 1021,2 19 0,0
13.07.2018 20:00:00 19,1 16,0 - - 4 2 S 1021,1 15 0,0
13.07.2018 19:00:00 18,9 16,2 - - 5 3 WSW 1021,0 22 0,0
13.07.2018 18:00:00 18,5 15,7 - - 9 5 W 1021,2 18 0,0
13.07.2018 17:00:00 18,4 15,0 - - 21 11 SSW 1021,4 16 0,4
13.07.2018 16:00:00 25,0 11,5 - - 11 6 S 1020,8 35 0,0
13.07.2018 15:00:00 25,3 11,7 - - 11 6 SE 1021,1 45 0,0
13.07.2018 14:00:00 25,1 13,4 - - 11 6 SE 1021,6 19 0,0
13.07.2018 13:00:00 23,3 12,8 - - 8 4 S 1022,3 35 0,0
13.07.2018 12:00:00 22,4 12,5 - - 9 5 SE 1022,7 17 0,0
13.07.2018 11:00:00 21,3 13,1 - - 9 5 SSE 1022,8 27 0,0
13.07.2018 10:00:00 19,4 13,6 21,2 18,2 9 5 E 1022,8 16 0,0
13.07.2018 09:00:00 17,8 13,6 - - 9 5 ESE 1023,0 19 0,0
13.07.2018 08:00:00 15,9 12,6 - - 8 4 E 1023,2 16 0,0
13.07.2018 07:00:00 15,2 11,8 - - 8 4 E 1022,8 25 0,0
13.07.2018 06:00:00 14,9 11,3 - - 9 5 E 1022,7 30 0,0
13.07.2018 05:00:00 15,1 11,3 - - 11 6 E 1022,6 35 0,0
13.07.2018 04:00:00 15,4 11,6 - - 8 4 E 1022,6 35 0,0
13.07.2018 03:00:00 15,9 12,0 - - 9 5 E 1022,6 30 0,0
13.07.2018 02:00:00 16,4 12,3 - - 13 7 E 1022,6 50 0,0
13.07.2018 01:00:00 17,8 12,4 - - 11 6 E 1022,6 45 0,0
13.07.2018 00:00:00 19,5 12,5 - - 9 5 E 1022,3 35 0,0
12.07.2018 23:00:00 19,9 12,1 - - 8 4 E 1022,1 35 0,0
12.07.2018 22:00:00 20,7 11,8 - - 9 5 E 1021,7 35 0,0
12.07.2018 21:00:00 22,0 12,2 - - 9 5 E 1021,3 23 0,0
12.07.2018 20:00:00 22,8 11,6 - - 8 4 E 1021,1 35 0,0
12.07.2018 19:00:00 23,8 11,5 - - 9 5 ENE 1021,1 25 0,0
12.07.2018 18:00:00 23,8 11,5 - - 8 4 NE 1021,0 30 0,0
12.07.2018 17:00:00 24,1 11,6 - - 9 5 E 1021,3 35 0,0
12.07.2018 16:00:00 23,7 11,4 - - 8 4 E 1021,6 30 0,0
12.07.2018 15:00:00 23,3 12,1 - - 8 4 E 1022,0 30 0,0
12.07.2018 14:00:00 22,5 12,3 - - 9 5 ENE 1022,4 28 0,0
12.07.2018 13:00:00 21,4 12,3 - - 11 6 ENE 1022,7 27 0,0
12.07.2018 12:00:00 19,3 12,0 - - 8 4 NNE 1023,1 24 0,0
12.07.2018 11:00:00 18,3 12,0 - - 5 3 ENE 1023,0 40 0,0
12.07.2018 10:00:00 17,4 11,8 21,2 18,0 8 4 ENE 1023,1 12 0,0
12.07.2018 09:00:00 15,5 11,7 - - 9 5 ENE 1023,0 24 0,0
12.07.2018 08:00:00 14,6 11,7 - - 9 5 ENE 1023,1 16 0,0
12.07.2018 07:00:00 14,1 11,7 - - 9 5 ENE 1022,7 14 0,0
12.07.2018 06:00:00 13,4 11,8 - - 11 6 E 1022,4 7 0,0
12.07.2018 05:00:00 14,5 12,1 - - 9 5 E 1022,3 19 0,0
12.07.2018 04:00:00 15,6 12,3 - - 11 6 E 1022,1 30 0,0
12.07.2018 03:00:00 16,5 12,6 - - 13 7 E 1021,8 35 0,0
12.07.2018 02:00:00 17,5 12,8 - - 9 5 E 1021,8 23 0,0
12.07.2018 01:00:00 17,7 12,8 - - 9 5 E 1021,6 35 0,0
12.07.2018 00:00:00 18,2 12,2 - - 9 5 E 1021,5 40 0,0
11.07.2018 23:00:00 19,6 11,9 - - 11 6 E 1021,3 45 0,0
11.07.2018 22:00:00 21,1 12,0 - - 9 5 ESE 1021,1 35 0,0
11.07.2018 21:00:00 22,0 11,8 - - 5 3 ESE 1020,5 45 0,0
11.07.2018 20:00:00 23,3 11,1 - - 8 4 E 1020,4 35 0,0
11.07.2018 19:00:00 24,1 10,5 - - 4 2 ENE 1020,4 30 0,0
11.07.2018 18:00:00 24,4 10,2 - - 4 2 ENE 1020,3 45 0,0
11.07.2018 17:00:00 24,1 9,9 - - 8 4 E 1020,6 35 0,0
11.07.2018 16:00:00 24,6 10,4 - - 4 2 ESE 1020,9 28 0,0
11.07.2018 15:00:00 25,1 10,7 - - 4 2 SSE 1021,2 23 0,0
11.07.2018 14:00:00 23,7 10,5 - - 5 3 E 1021,7 14 0,0
11.07.2018 13:00:00 23,6 10,8 - - 5 3 N 1022,2 26 0,0
11.07.2018 12:00:00 22,7 11,5 - - 5 3 NNW 1022,5 30 0,0

tt = Température de l'air
td = dewpoint
tt -20cm = Température de l'air -20cm
tt -100cm = Température de l'air -100cm
ff = Vitesse du vent
dd = Direction du vent
ppp = reduced air pressure
vv = visibility
rr = Quantités de précipitations

stations d'obs. à proximité